EWG6902 EDDS-EDDL

Flight info

Callsign EWG6902
Flight time 0h 56m
Altitude 23000
Route TAGIK4B TAGIK Z3 ABUMO N850 GISEM Z505 ARPEG Z850 ADEMI T854 DOMUX DOMUX1A
Aircraft A320/M-SDE3FGHIRWY/LB1

Departure

Time 2026-05-04 18:53
Airport Stuttgart Airport (EDDS)

Arrival

Time 2026-05-04 19:49
Airport Düsseldorf Airport (EDDL)
Time Latitude Longitude Altitude Speed Heading
2026-05-04 18:18 48.68884 9.19359 1315 ft 0 kts 345°
2026-05-04 18:39 48.68878 9.19362 1315 ft 4 kts 344°
2026-05-04 18:39 48.68852 9.19372 1315 ft 4 kts 346°
2026-05-04 18:39 48.68826 9.19380 1314 ft 4 kts
2026-05-04 18:39 48.68806 9.19372 1314 ft 3 kts 69°
2026-05-04 18:40 48.68805 9.19367 1314 ft 0 kts 74°
2026-05-04 18:42 48.68805 9.19370 1313 ft 1 kts 74°
2026-05-04 18:42 48.68812 9.19409 1313 ft 8 kts 75°
2026-05-04 18:42 48.68833 9.19521 1311 ft 14 kts 75°
2026-05-04 18:42 48.68862 9.19675 1308 ft 13 kts 73°
2026-05-04 18:43 48.68889 9.19817 1304 ft 14 kts 77°
2026-05-04 18:43 48.68826 9.19911 1298 ft 13 kts 139°
2026-05-04 18:43 48.68840 9.20041 1294 ft 15 kts 68°
2026-05-04 18:43 48.68872 9.20211 1290 ft 19 kts 74°
2026-05-04 18:44 48.68914 9.20429 1286 ft 24 kts 74°
2026-05-04 18:44 48.68945 9.20595 1280 ft 23 kts 74°
2026-05-04 18:44 48.69008 9.20926 1273 ft 23 kts 73°
2026-05-04 18:44 48.69056 9.21177 1269 ft 27 kts 74°
2026-05-04 18:45 48.69107 9.21450 1265 ft 27 kts 74°
2026-05-04 18:45 48.69156 9.21700 1258 ft 26 kts 73°
2026-05-04 18:45 48.69207 9.21970 1260 ft 27 kts 74°
2026-05-04 18:45 48.69258 9.22245 1245 ft 23 kts 74°
2026-05-04 18:46 48.69305 9.22496 1236 ft 23 kts 74°
2026-05-04 18:46 48.69351 9.22735 1231 ft 25 kts 74°
2026-05-04 18:46 48.69403 9.23005 1225 ft 27 kts 74°
2026-05-04 18:46 48.69453 9.23273 1220 ft 27 kts 73°
2026-05-04 18:47 48.69507 9.23547 1214 ft 27 kts 73°
2026-05-04 18:47 48.69554 9.23803 1209 ft 24 kts 74°
2026-05-04 18:47 48.69589 9.23989 1205 ft 24 kts 74°
2026-05-04 18:47 48.69596 9.24191 1198 ft 19 kts 112°
2026-05-04 18:48 48.69545 9.24296 1193 ft 11 kts 149°
2026-05-04 18:48 48.69504 9.24316 1191 ft 4 kts 165°
2026-05-04 18:48 48.69498 9.24319 1190 ft 0 kts 165°
2026-05-04 18:49 48.69497 9.24319 1190 ft 2 kts 165°
2026-05-04 18:49 48.69439 9.24328 1190 ft 12 kts 187°
2026-05-04 18:50 48.69381 9.24273 1192 ft 8 kts 241°
2026-05-04 18:50 48.69371 9.24224 1193 ft 0 kts 255°
2026-05-04 18:52 48.69371 9.24223 1193 ft 2 kts 255°
2026-05-04 18:52 48.69324 9.23968 1198 ft 60 kts 254°
2026-05-04 18:53 48.69148 9.23042 1216 ft 121 kts 254°
2026-05-04 18:53 48.68876 9.21585 1347 ft 158 kts 258°
2026-05-04 18:53 48.68600 9.19987 2017 ft 157 kts 258°
2026-05-04 18:53 48.68289 9.18366 2642 ft 165 kts 257°
2026-05-04 18:54 48.67934 9.16608 2950 ft 183 kts 255°
2026-05-04 18:54 48.67544 9.14680 3295 ft 200 kts 255°
2026-05-04 18:54 48.67122 9.12559 3579 ft 221 kts 256°
2026-05-04 18:54 48.67021 9.10164 4002 ft 237 kts 287°
2026-05-04 18:55 48.67798 9.07943 4696 ft 246 kts 307°
2026-05-04 18:55 48.70802 9.05594 5146 ft 270 kts 349°
2026-05-04 18:55 48.72649 9.04931 5055 ft 274 kts 344°
2026-05-04 18:56 48.74460 9.04081 5018 ft 272 kts 341°
2026-05-04 18:56 48.76228 9.03166 5012 ft 272 kts 340°
2026-05-04 18:56 48.78014 9.02215 5012 ft 272 kts 340°
2026-05-04 18:56 48.79833 9.01229 5430 ft 275 kts 339°
2026-05-04 18:57 48.81610 9.00191 6323 ft 279 kts 338°
2026-05-04 18:57 48.83459 8.99079 7141 ft 284 kts 337°
2026-05-04 18:57 48.85290 8.97973 7936 ft 290 kts 337°
2026-05-04 18:57 48.87179 8.96838 8726 ft 295 kts 337°
2026-05-04 18:58 48.89108 8.95680 9514 ft 301 kts 337°
2026-05-04 18:58 48.91070 8.94509 10257 ft 306 kts 337°
2026-05-04 18:58 48.93083 8.93315 10832 ft 319 kts 337°
2026-05-04 18:58 48.95289 8.92327 11065 ft 343 kts 348°
2026-05-04 18:59 48.97728 8.92013 11474 ft 359 kts
2026-05-04 18:59 49.00231 8.92324 12162 ft 363 kts
2026-05-04 18:59 49.02760 8.92687 12889 ft 367 kts
2026-05-04 18:59 49.05323 8.93039 13613 ft 371 kts
2026-05-04 19:00 49.07898 8.93385 14250 ft 374 kts
2026-05-04 19:00 49.10513 8.93735 14861 ft 378 kts
2026-05-04 19:00 49.13153 8.94090 15475 ft 382 kts
2026-05-04 19:00 49.15811 8.94453 16078 ft 386 kts
2026-05-04 19:01 49.18504 8.94825 16681 ft 390 kts
2026-05-04 19:01 49.21216 8.95201 17292 ft 393 kts
2026-05-04 19:01 49.23955 8.95587 17885 ft 397 kts
2026-05-04 19:01 49.26717 8.95980 18434 ft 401 kts
2026-05-04 19:02 49.29508 8.96374 18936 ft 404 kts
2026-05-04 19:02 49.32317 8.96763 19428 ft 408 kts
2026-05-04 19:02 49.35154 8.97158 19926 ft 411 kts
2026-05-04 19:02 49.38021 8.97560 20408 ft 414 kts
2026-05-04 19:03 49.40901 8.97966 20905 ft 418 kts
2026-05-04 19:03 49.43811 8.98379 21389 ft 421 kts
2026-05-04 19:03 49.46735 8.98793 21858 ft 424 kts
2026-05-04 19:03 49.49681 8.99209 22313 ft 427 kts
2026-05-04 19:04 49.52654 8.99624 22648 ft 430 kts
2026-05-04 19:04 49.55639 9.00039 22902 ft 431 kts
2026-05-04 19:04 49.58635 9.00449 22982 ft 434 kts
2026-05-04 19:04 49.61646 9.00856 22980 ft 435 kts
2026-05-04 19:05 49.63647 9.01131 22981 ft 435 kts
2026-05-04 19:05 49.66663 9.01559 22976 ft 435 kts
2026-05-04 19:05 49.69672 9.01995 22978 ft 435 kts
2026-05-04 19:05 49.72683 9.02431 22977 ft 435 kts
2026-05-04 19:06 49.75699 9.02869 22975 ft 435 kts
2026-05-04 19:06 49.78717 9.03313 22977 ft 435 kts
2026-05-04 19:06 49.81729 9.03750 22980 ft 435 kts
2026-05-04 19:06 49.84747 9.04185 22988 ft 435 kts
2026-05-04 19:07 49.87763 9.04616 22991 ft 435 kts
2026-05-04 19:07 49.90786 9.04737 22991 ft 433 kts 354°
2026-05-04 19:07 49.93754 9.04112 22990 ft 430 kts 345°
2026-05-04 19:07 49.96570 9.02792 22988 ft 426 kts 336°
2026-05-04 19:08 49.99372 9.01131 22985 ft 426 kts 336°
2026-05-04 19:08 50.02145 8.99492 22984 ft 426 kts 336°
2026-05-04 19:08 50.04883 8.97874 22984 ft 426 kts 336°
2026-05-04 19:08 50.07659 8.96232 22990 ft 426 kts 336°
2026-05-04 19:09 50.10433 8.94588 22990 ft 426 kts 336°
2026-05-04 19:09 50.13248 8.92963 22988 ft 427 kts 340°
2026-05-04 19:09 50.16149 8.91918 22987 ft 430 kts 349°
2026-05-04 19:09 50.19108 8.91300 22987 ft 430 kts 350°
2026-05-04 19:10 50.22073 8.90683 22988 ft 430 kts 350°
2026-05-04 19:10 50.24037 8.90271 22988 ft 430 kts 350°
2026-05-04 19:10 50.27962 8.89441 22986 ft 430 kts 350°
2026-05-04 19:10 50.30899 8.88631 22984 ft 427 kts 341°
2026-05-04 19:11 50.33603 8.86840 22979 ft 422 kts 329°
2026-05-04 19:11 50.36217 8.84735 22975 ft 422 kts 329°
2026-05-04 19:11 50.38823 8.82622 22974 ft 422 kts 329°
2026-05-04 19:11 50.41427 8.80501 22973 ft 422 kts 329°
2026-05-04 19:12 50.44031 8.78374 22973 ft 422 kts 329°
2026-05-04 19:12 50.49239 8.74111 22976 ft 422 kts 329°
2026-05-04 19:12 50.51839 8.71978 22976 ft 422 kts 329°
2026-05-04 19:13 50.54443 8.69840 22979 ft 422 kts 329°
2026-05-04 19:13 50.57045 8.67704 22988 ft 422 kts 329°
2026-05-04 19:13 50.59648 8.65559 22992 ft 422 kts 329°
2026-05-04 19:13 50.62249 8.63412 22993 ft 421 kts 329°
2026-05-04 19:14 50.64840 8.61277 22994 ft 421 kts 329°
2026-05-04 19:14 50.67443 8.59138 23000 ft 421 kts 329°
2026-05-04 19:14 50.70045 8.56999 23000 ft 421 kts 329°
2026-05-04 19:14 50.72640 8.54858 23000 ft 421 kts 329°
2026-05-04 19:15 50.75233 8.52707 22995 ft 421 kts 329°
2026-05-04 19:15 50.77826 8.50549 22996 ft 421 kts 329°
2026-05-04 19:15 50.80416 8.48393 22995 ft 421 kts 329°
2026-05-04 19:15 50.83004 8.46237 23012 ft 421 kts 329°
2026-05-04 19:16 50.85569 8.44108 22985 ft 408 kts 329°
2026-05-04 19:16 50.88028 8.42074 22992 ft 390 kts 329°
2026-05-04 19:16 50.90379 8.40124 22992 ft 373 kts 329°
2026-05-04 19:16 50.92644 8.38234 22991 ft 364 kts 328°
2026-05-04 19:17 50.94869 8.36362 22989 ft 361 kts 328°
2026-05-04 19:17 50.97087 8.34491 22992 ft 361 kts 328°
2026-05-04 19:17 50.99307 8.32620 22991 ft 361 kts 328°
2026-05-04 19:17 51.01528 8.30752 22993 ft 361 kts 328°
2026-05-04 19:18 51.03737 8.28862 22996 ft 360 kts 327°
2026-05-04 19:18 51.05897 8.26955 22994 ft 359 kts 327°
2026-05-04 19:18 51.08068 8.25005 22993 ft 358 kts 327°
2026-05-04 19:18 51.10234 8.23054 22995 ft 358 kts 327°
2026-05-04 19:19 51.12405 8.21104 22993 ft 358 kts 327°
2026-05-04 19:19 51.14566 8.19171 22654 ft 355 kts 327°
2026-05-04 19:19 51.16714 8.17249 22211 ft 353 kts 327°
2026-05-04 19:19 51.18851 8.15343 21780 ft 351 kts 327°
2026-05-04 19:20 51.20976 8.13448 21356 ft 349 kts 327°
2026-05-04 19:20 51.23086 8.11558 20943 ft 347 kts 327°
2026-05-04 19:20 51.25184 8.09678 20525 ft 346 kts 327°
2026-05-04 19:20 51.27282 8.07797 20108 ft 345 kts 327°
2026-05-04 19:21 51.29375 8.05925 19715 ft 344 kts 329°
2026-05-04 19:21 51.31635 8.04670 19348 ft 347 kts 349°
2026-05-04 19:21 51.34046 8.04267 18940 ft 348 kts 353°
2026-05-04 19:21 51.36461 8.03973 18557 ft 348 kts 354°
2026-05-04 19:22 51.38868 8.03688 18175 ft 346 kts 354°
2026-05-04 19:22 51.41270 8.03401 17768 ft 345 kts 354°
2026-05-04 19:22 51.43657 8.03110 17385 ft 343 kts 354°
2026-05-04 19:22 51.46033 8.02817 17029 ft 341 kts 354°
2026-05-04 19:23 51.48387 8.02524 16679 ft 339 kts 354°
2026-05-04 19:23 51.50734 8.02229 16332 ft 337 kts 354°
2026-05-04 19:23 51.53053 8.01934 16139 ft 330 kts 354°
2026-05-04 19:23 51.55295 8.01643 16007 ft 316 kts 354°
2026-05-04 19:24 51.57434 8.01351 15875 ft 302 kts 354°
2026-05-04 19:24 51.59506 8.01068 15598 ft 295 kts 353°
2026-05-04 19:24 51.61486 8.00362 15336 ft 290 kts 334°
2026-05-04 19:24 51.63140 7.98615 15077 ft 283 kts 311°
2026-05-04 19:25 51.64248 7.96066 14797 ft 275 kts 289°
2026-05-04 19:25 51.64690 7.93127 14518 ft 268 kts 268°
2026-05-04 19:25 51.64471 7.90230 14245 ft 263 kts 249°
2026-05-04 19:25 51.63637 7.87620 14023 ft 258 kts 229°
2026-05-04 19:26 51.62408 7.85571 13969 ft 258 kts 222°
2026-05-04 19:26 51.61120 7.83548 13964 ft 260 kts 223°
2026-05-04 19:26 51.59830 7.81511 13971 ft 260 kts 223°
2026-05-04 19:26 51.58541 7.79478 13967 ft 260 kts 223°
2026-05-04 19:27 51.57247 7.77444 13971 ft 260 kts 223°
2026-05-04 19:27 51.56044 7.75282 13951 ft 261 kts 238°
2026-05-04 19:27 51.55500 7.72531 13702 ft 264 kts 266°
2026-05-04 19:27 51.55759 7.69595 13382 ft 268 kts 282°
2026-05-04 19:28 51.56252 7.66708 13054 ft 268 kts 283°
2026-05-04 19:28 51.56765 7.63828 12721 ft 267 kts 283°
2026-05-04 19:28 51.57276 7.60971 12383 ft 266 kts 283°
2026-05-04 19:28 51.57783 7.58122 12049 ft 264 kts 283°
2026-05-04 19:29 51.58284 7.55300 11653 ft 262 kts 283°
2026-05-04 19:29 51.58783 7.52477 11332 ft 261 kts 283°
2026-05-04 19:29 51.59270 7.49705 11064 ft 260 kts 283°
2026-05-04 19:29 51.59765 7.46879 10760 ft 259 kts 283°
2026-05-04 19:30 51.60250 7.44103 10490 ft 257 kts 283°
2026-05-04 19:30 51.60728 7.41343 10211 ft 256 kts 283°
2026-05-04 19:30 51.61196 7.38630 9893 ft 254 kts 283°
2026-05-04 19:30 51.61665 7.35899 9552 ft 253 kts 283°
2026-05-04 19:31 51.62133 7.33180 9242 ft 251 kts 283°
2026-05-04 19:31 51.62599 7.30478 8933 ft 249 kts 283°
2026-05-04 19:31 51.63065 7.27791 8635 ft 248 kts 283°
2026-05-04 19:31 51.63530 7.25124 8387 ft 247 kts 284°
2026-05-04 19:32 51.63982 7.22445 8137 ft 249 kts 283°
2026-05-04 19:32 51.64426 7.19745 7985 ft 249 kts 283°
2026-05-04 19:32 51.64868 7.17052 7968 ft 249 kts 283°
2026-05-04 19:32 51.65312 7.14352 7970 ft 250 kts 283°
2026-05-04 19:33 51.65753 7.11655 7972 ft 250 kts 283°
2026-05-04 19:33 51.66191 7.08946 7968 ft 249 kts 281°
2026-05-04 19:33 51.66192 7.06204 7970 ft 246 kts 252°
2026-05-04 19:33 51.65429 7.03759 7977 ft 245 kts 236°
2026-05-04 19:34 51.64471 7.01496 7973 ft 245 kts 233°
2026-05-04 19:34 51.63489 6.99255 7971 ft 245 kts 233°
2026-05-04 19:34 51.62504 6.97017 7969 ft 245 kts 233°
2026-05-04 19:34 51.61518 6.94781 7970 ft 245 kts 233°
2026-05-04 19:35 51.60532 6.92546 7969 ft 245 kts 233°
2026-05-04 19:35 51.59556 6.90325 7968 ft 241 kts 233°
2026-05-04 19:35 51.58596 6.88121 7975 ft 240 kts 233°
2026-05-04 19:35 51.57642 6.85930 7970 ft 239 kts 233°
2026-05-04 19:36 51.56685 6.83736 7971 ft 239 kts 233°
2026-05-04 19:36 51.55729 6.81547 7970 ft 239 kts 233°
2026-05-04 19:36 51.54772 6.79356 7967 ft 239 kts 233°
2026-05-04 19:36 51.53803 6.77188 7965 ft 239 kts 228°
2026-05-04 19:37 51.52470 6.75690 7970 ft 236 kts 197°
2026-05-04 19:37 51.50851 6.75560 7977 ft 237 kts 166°
2026-05-04 19:37 51.49406 6.76813 7775 ft 239 kts 136°
2026-05-04 19:37 51.48562 6.79163 7418 ft 243 kts 104°
2026-05-04 19:38 51.48376 6.81851 7055 ft 246 kts 95°
2026-05-04 19:38 51.48326 6.84605 6720 ft 246 kts 94°
2026-05-04 19:38 51.48298 6.87350 6408 ft 245 kts 93°
2026-05-04 19:38 51.48276 6.90085 6062 ft 245 kts 92°
2026-05-04 19:39 51.48588 6.92718 5739 ft 247 kts 66°
2026-05-04 19:39 51.49430 6.95119 5384 ft 247 kts 59°
2026-05-04 19:39 51.50352 6.97446 5081 ft 246 kts 58°
2026-05-04 19:39 51.51277 6.99748 5004 ft 246 kts 58°
2026-05-04 19:40 51.52208 7.02062 5007 ft 247 kts 58°
2026-05-04 19:40 51.53142 7.04379 5008 ft 247 kts 58°
2026-05-04 19:40 51.54078 7.06703 5010 ft 248 kts 58°
2026-05-04 19:40 51.55014 7.09023 5009 ft 247 kts 58°
2026-05-04 19:41 51.55962 7.11373 5008 ft 247 kts 58°
2026-05-04 19:41 51.56690 7.13900 5006 ft 243 kts 83°
2026-05-04 19:41 51.56564 7.16492 4986 ft 237 kts 114°
2026-05-04 19:41 51.55672 7.18613 4679 ft 230 kts 139°
2026-05-04 19:42 51.54462 7.20324 4316 ft 230 kts 143°
2026-05-04 19:42 51.53098 7.21581 3990 ft 226 kts 166°
2026-05-04 19:42 51.51555 7.21704 3674 ft 222 kts 192°
2026-05-04 19:42 51.50156 7.20703 3350 ft 222 kts 218°
2026-05-04 19:43 51.49130 7.18854 3062 ft 222 kts 232°
2026-05-04 19:43 51.48202 7.16854 3017 ft 224 kts 232°
2026-05-04 19:43 51.47265 7.14845 3017 ft 226 kts 232°
2026-05-04 19:43 51.46320 7.12831 3017 ft 226 kts 232°
2026-05-04 19:44 51.45377 7.10823 3011 ft 226 kts 232°
2026-05-04 19:44 51.44435 7.08819 3012 ft 226 kts 232°
2026-05-04 19:44 51.43488 7.06806 3011 ft 225 kts 232°
2026-05-04 19:44 51.42547 7.04807 3011 ft 226 kts 232°
2026-05-04 19:45 51.41600 7.02798 3010 ft 225 kts 232°
2026-05-04 19:45 51.40654 7.00791 3013 ft 226 kts 232°
2026-05-04 19:45 51.39719 6.98807 3002 ft 217 kts 231°
2026-05-04 19:45 51.38840 6.96945 2991 ft 203 kts 231°
2026-05-04 19:46 51.37998 6.95165 2826 ft 199 kts 231°
2026-05-04 19:46 51.37170 6.93413 2606 ft 195 kts 231°
2026-05-04 19:46 51.36363 6.91707 2343 ft 188 kts 231°
2026-05-04 19:46 51.35850 6.90625 2167 ft 179 kts 232°
2026-05-04 19:47 51.35119 6.89081 1922 ft 171 kts 231°
2026-05-04 19:47 51.34411 6.87588 1708 ft 169 kts 231°
2026-05-04 19:47 51.33733 6.86156 1483 ft 154 kts 230°
2026-05-04 19:47 51.33114 6.84850 1280 ft 143 kts 230°
2026-05-04 19:48 51.32522 6.83607 1081 ft 140 kts 230°
2026-05-04 19:48 51.31940 6.82378 879 ft 138 kts 230°
2026-05-04 19:48 51.31358 6.81155 716 ft 137 kts 230°
2026-05-04 19:48 51.30781 6.79943 521 ft 136 kts 229°
2026-05-04 19:49 51.30214 6.78744 347 ft 134 kts 231°
2026-05-04 19:49 51.29654 6.77565 172 ft 133 kts 230°
2026-05-04 19:49 51.29135 6.76479 134 ft 102 kts 233°
2026-05-04 19:49 51.28863 6.75913 129 ft 49 kts 231°
2026-05-04 19:50 51.28666 6.75690 126 ft 20 kts 193°
2026-05-04 19:50 51.28578 6.75685 123 ft 11 kts 171°
2026-05-04 19:50 51.28543 6.75699 121 ft 2 kts 162°
2026-05-04 19:50 51.28532 6.75706 124 ft 1 kts 159°
2026-05-04 19:51 51.28531 6.75707 124 ft 0 kts 159°
2026-05-04 19:51 51.28525 6.75711 124 ft 1 kts 156°
2026-05-04 19:51 51.28524 6.75712 124 ft 0 kts 156°
2026-05-04 19:52 51.28516 6.75718 122 ft 4 kts 154°
2026-05-04 19:52 51.28496 6.75737 125 ft 3 kts 147°
2026-05-04 19:52 51.28485 6.75749 120 ft 1 kts 144°
2026-05-04 19:53 51.28481 6.75753 123 ft 0 kts 144°
2026-05-04 19:53 51.28476 6.75759 123 ft 0 kts 143°
2026-05-04 19:54 51.28462 6.75776 122 ft 2 kts 143°
2026-05-04 19:55 51.28456 6.75783 126 ft 0 kts 142°
2026-05-04 19:55 51.28453 6.75787 126 ft 2 kts 142°
2026-05-04 19:55 51.28447 6.75794 121 ft 0 kts 142°
2026-05-04 19:57 51.28441 6.75802 121 ft 3 kts 142°
2026-05-04 19:57 51.28411 6.75839 124 ft 11 kts 142°
2026-05-04 19:57 51.28341 6.75924 124 ft 12 kts 142°
2026-05-04 19:57 51.28288 6.75988 127 ft 8 kts 144°
2026-05-04 19:58 51.28237 6.76042 127 ft 8 kts 147°
2026-05-04 19:58 51.28223 6.76056 126 ft 1 kts 147°
2026-05-04 19:58 51.28222 6.76056 126 ft 0 kts 147°
2026-05-04 20:00 51.28199 6.76085 126 ft 10 kts 133°
2026-05-04 20:00 51.28204 6.76205 127 ft 12 kts 91°
2026-05-04 20:00 51.28157 6.76294 126 ft 10 kts 132°
2026-05-04 20:00 51.28119 6.76383 129 ft 9 kts 130°
2026-05-04 20:01 51.28069 6.76382 129 ft 5 kts 197°
2026-05-04 20:01 51.28047 6.76371 126 ft 2 kts 197°
2026-05-04 20:01 51.28042 6.76368 127 ft 0 kts 197°